Temp
18 19 21 23 23 24 25 26 27 25 25 27 27 27 28 29 29 27 23 22 24 23 20 19 19 19 19 18 18 19 18 18 18 19 19 18 18 18 18 18 18 18 18 18 18 18 18 18 18
20 21 22 25 22 23 25 27 24 25 28 26 26 26 26 27 28 25 24 22 23 22 20 20 19 19 19 18 18 19 18 18 18 18 18 18 18 18 18 18 18 17 17 17 17 17 18 18 18
19 21 23 23 23 23 25 26 25 26 27 26 26 26 26 27 25 26 23 23 23 21 20 20 19 18 18 19 18 18 18 18 18 18 18 18 17 17 18 18 18 17 17 16 16 16 17 17 17
20 22 23 22 23 25 26 25 25 26 26 26 26 26 26 24 24 25 22 22 22 21 19 19 19 18 18 18 18 18 18 18 18 18 18 17 17 17 17 17 16 16 16 16 16 16 16 16 16
20 24 22 23 23 25 25 25 25 26 26 26 25 26 26 23 22 22 22 21 21 21 19 18 18 18 18 18 18 18 18 18 18 17 17 16 16 16 16 15 16 16 16 15 15 17 16 17 17
22 23 22 22 24 25 25 25 24 25 26 26 25 25 26 24 22 22 21 21 21 21 19 18 17 18 18 18 18 17 17 17 17 17 16 16 15 15 15 15 15 16 16 16 16 16 16 16 17
21 22 22 23 24 25 25 24 24 24 26 26 26 25 26 24 22 20 21 21 21 20 19 18 17 17 17 17 17 17 17 16 16 15 15 15 15 16 16 15 16 16 16 16 16 17 17 17 17
22 22 22 23 23 24 24 23 24 24 25 27 27 25 25 27 21 20 21 20 19 18 18 18 17 17 16 16 17 16 16 15 15 15 15 16 16 15 16 16 16 16 16 17 17 17 17 17 17
20 20 21 22 23 24 23 21 25 25 24 26 26 25 23 24 19 18 19 19 19 17 17 17 16 16 16 16 16 15 15 15 15 15 15 15 14 15 16 16 16 16 16 16 16 17 17 16 16
19 20 21 24 24 24 24 23 24 24 24 24 24 24 21 23 17 18 19 20 19 18 16 16 16 16 15 15 15 14 15 14 14 14 14 14 14 15 15 16 16 16 16 16 16 16 15 14 13
19 19 22 23 23 22 22 23 23 23 23 25 25 26 24 22 19 17 18 21 19 18 15 15 14 15 14 13 14 14 14 13 13 13 14 14 14 13 13 13 12 13 14 13 13 12 12 12 12
18 19 20 21 22 21 21 22 22 22 23 25 25 24 24 22 23 19 17 19 18 14 13 14 14 14 13 14 14 14 14 13 13 13 14 14 13 13 13 12 12 12 12 11 11 10 10 10 10
18 18 20 21 20 20 21 20 21 21 23 23 24 22 22 23 23 22 20 18 17 15 13 13 13 14 13 14 15 14 14 14 13 12 13 12 12 12 12 12 11 11 10 10 10 10 10 9 10
19 18 18 19 20 20 19 20 20 21 22 22 22 22 22 23 23 22 20 20 18 16 14 13 13 14 14 15 14 14 14 13 13 12 11 12 12 12 11 11 11 10 10 10 9 9 9 9 9
16 16 18 19 19 19 20 18 19 21 21 21 21 22 23 23 23 22 21 20 17 16 16 15 14 14 14 14 14 13 13 12 12 11 11 12 11 12 11 10 10 9 9 9 9 9 9 9 9
15 17 17 20 19 20 18 18 21 23 21 21 21 22 22 23 23 23 21 19 18 16 15 14 14 14 14 13 13 12 12 12 11 11 10 11 12 11 10 10 9 9 8 8 8 8 8 9 9
16 16 18 19 20 19 18 19 22 21 21 21 22 22 22 22 23 23 22 19 18 17 15 14 13 13 13 13 12 11 11 11 11 10 9 10 11 11 9 9 8 8 7 7 7 8 8 8 8
17 17 17 18 19 17 18 18 20 21 21 20 20 21 21 22 22 23 22 21 18 17 16 14 13 13 13 12 11 10 10 10 10 10 9 9 9 10 8 8 7 8 7 7 6 6 7 7 7
16 16 16 17 19 17 17 18 19 21 21 20 20 20 21 21 22 21 21 21 18 18 16 15 14 13 12 11 10 10 10 9 9 8 8 8 9 9 8 7 6 6 6 5 5 5 6 7 6
15 14 15 17 17 16 17 17 19 20 20 21 21 21 21 21 21 21 20 20 18 17 16 15 14 13 11 11 11 11 11 9 9 8 7 7 8 8 7 6 6 5 5 5 5 5 5 6 5
14 14 15 15 17 17 16 16 18 20 21 21 21 21 20 20 20 20 19 19 18 17 16 15 14 13 11 11 11 11 10 9 8 7 6 7 7 8 7 6 6 4 4 5 4 4 4 6 6
13 16 16 15 14 14 15 14 18 21 21 21 21 21 20 20 20 19 20 18 17 16 16 15 14 13 12 11 11 10 9 9 9 8 7 6 7 6 7 6 5 4 3 3 3 3 3 4 5
14 14 14 14 14 14 15 14 17 20 19 21 20 20 19 19 17 17 18 19 17 16 15 15 14 13 12 11 10 10 11 11 10 8 6 5 6 5 6 5 5 3 3 2 2 2 2 3 4
14 14 14 14 14 12 15 16 17 20 21 20 19 17 16 15 15 15 15 16 17 15 14 14 14 13 12 11 10 10 12 11 9 7 6 5 4 5 5 5 3 2 2 2 1 1 1 2 2
13 13 12 13 11 13 14 15 17 19 19 17 17 16 16 15 14 14 13 14 15 14 13 13 13 12 11 10 10 11 11 10 8 7 6 5 5 4 4 4 3 2 1 1 1 1 1 1 1
13 12 13 13 15 15 15 13 18 18 17 17 17 16 16 15 14 13 12 12 12 13 12 12 13 12 10 9 10 10 10 9 8 8 7 6 5 5 4 3 2 2 1 1 0 1 0 0 -0
12 11 14 12 9 10 14 16 18 18 17 17 16 16 16 15 14 12 11 11 11 11 11 11 11 11 9 9 9 9 9 9 8 8 7 6 6 4 4 3 2 2 1 0 0 0 -0 -0 -1
10 12 11 11 11 12 14 14 16 16 15 14 15 14 15 14 14 13 11 10 9 9 10 10 10 10 8 9 8 8 8 8 8 7 6 5 5 4 4 3 2 1 1 0 0 -1 -1 -1 -1
10 10 10 11 12 12 12 15 16 15 14 13 13 12 12 13 14 14 11 9 8 8 8 9 9 9 8 8 7 7 7 7 7 7 6 6 5 5 4 3 2 1 1 0 0 -0 -1 -1 -1
9 9 9 8 11 11 12 13 17 15 13 12 11 11 11 11 12 13 13 10 8 7 7 8 8 8 7 7 6 6 7 6 6 6 6 5 5 4 4 3 2 1 1 -0 -0 -1 -1 -1 -1
Height
782 782 782 780 789 774 770 763 751 763 762 749 751 750 750 743 747 762 756 758 758 762 767 771 772 775 778 782 785 787 789 790 791 792 794 796 798 799 801 803 804 804 805 807 807 808 809 809 811
782 782 781 772 785 778 768 752 764 761 748 752 752 753 753 753 744 753 757 759 761 764 768 772 773 775 779 782 786 789 791 791 792 794 795 796 798 800 802 803 805 806 807 808 809 809 810 810 810
781 781 777 774 772 772 763 750 756 752 747 753 753 750 749 748 749 750 756 758 762 766 769 771 774 777 779 782 786 789 791 793 794 795 797 798 799 800 802 803 805 806 808 809 810 811 811 810 811
780 779 774 774 764 752 753 755 755 752 749 750 750 753 749 751 752 752 757 760 762 766 770 772 774 779 781 783 785 789 792 794 795 797 797 799 800 802 803 804 805 807 808 809 809 810 811 811 811
778 768 774 766 762 752 748 753 752 752 749 749 750 750 748 752 754 755 757 761 764 767 770 774 776 779 782 785 786 789 791 794 796 797 799 800 801 802 804 805 806 807 807 809 809 810 810 811 812
772 764 768 764 754 747 747 749 754 753 747 746 754 751 746 750 754 756 759 763 765 768 770 774 778 780 782 785 787 789 791 793 795 798 800 801 801 803 805 805 806 807 808 809 810 810 810 811 811
768 765 762 754 749 743 745 751 756 753 748 746 744 754 745 749 754 756 759 763 765 768 771 775 778 781 783 785 788 790 791 792 795 798 800 801 801 802 804 806 806 806 808 809 810 810 810 810 810
766 761 760 754 754 749 744 754 752 752 749 738 739 751 751 740 753 757 759 762 766 768 772 774 776 780 783 785 787 790 791 792 794 797 800 802 802 804 805 806 806 807 808 808 809 810 810 809 809
770 766 761 755 750 746 747 756 745 743 745 740 741 744 748 747 753 758 759 762 765 767 770 772 774 777 780 783 787 789 791 793 794 797 800 803 804 805 806 806 807 807 808 808 808 808 808 807 807
769 764 754 742 739 743 744 750 744 746 744 743 743 744 748 748 755 757 757 757 761 765 768 770 773 776 779 783 786 788 792 794 795 798 800 802 803 804 805 806 807 807 807 807 807 807 806 806 806
762 762 747 743 743 748 749 747 745 747 746 738 738 735 742 747 753 757 756 754 759 763 766 768 771 775 779 782 783 788 793 794 795 797 800 802 803 804 806 806 806 807 806 807 806 806 806 805 804
766 759 754 750 747 752 752 746 746 744 741 735 734 737 739 745 745 752 756 755 758 760 764 767 770 774 778 781 784 786 791 794 796 797 799 801 803 803 804 805 806 806 806 806 806 806 804 804 803
765 761 754 750 753 751 750 749 746 743 739 738 736 743 741 740 742 744 750 754 757 759 762 764 769 772 777 779 783 786 790 793 795 796 799 802 803 803 803 803 804 805 806 805 805 805 803 802 802
758 760 756 753 750 749 750 745 745 741 740 738 737 739 738 738 739 741 745 748 753 757 759 763 767 772 775 780 780 784 788 791 793 796 798 800 802 802 802 802 803 804 804 804 803 803 802 802 801
766 765 754 747 745 747 746 746 742 735 735 735 734 731 733 733 734 737 740 744 750 755 760 763 765 771 772 776 778 782 787 790 792 794 796 799 801 801 802 802 803 803 803 803 803 803 802 801 801
768 759 756 735 739 736 748 743 727 720 728 730 728 726 727 727 729 731 736 741 746 751 755 760 765 767 769 774 777 780 784 787 790 793 796 798 799 800 801 802 802 802 802 802 803 802 802 801 800
761 758 747 741 732 738 743 735 720 722 722 725 722 719 721 722 721 725 729 735 740 745 751 755 761 765 768 770 775 779 783 786 790 793 795 797 798 799 801 801 801 801 802 803 802 802 802 801 800
749 750 748 746 739 742 739 734 725 722 722 723 722 717 717 716 716 719 724 730 736 741 746 751 756 761 766 767 773 778 782 785 787 791 794 796 797 798 800 800 800 801 802 803 802 802 802 801 799
755 758 753 744 737 743 741 732 722 717 717 716 716 715 713 712 712 716 721 725 732 736 741 745 750 756 760 763 769 774 778 782 785 790 792 793 795 797 798 799 800 801 801 801 801 801 801 800 799
760 760 754 743 739 743 737 730 722 711 710 707 705 706 705 706 707 711 715 719 724 729 733 740 744 749 754 758 764 770 775 780 784 787 789 791 793 795 796 798 799 799 800 800 800 800 800 800 799
758 758 752 749 739 736 735 725 710 700 699 699 696 696 700 701 701 704 709 711 716 721 726 732 737 742 748 754 762 768 773 778 782 784 787 788 791 792 794 796 797 798 798 799 798 799 800 800 800
758 747 746 749 750 746 740 734 710 696 693 692 691 693 696 698 698 700 702 707 710 713 718 725 732 737 743 749 755 760 765 770 775 780 784 786 788 791 792 793 795 796 797 798 798 798 800 800 799
753 754 753 750 750 745 735 740 712 695 701 690 695 697 697 697 701 699 698 698 703 709 713 718 726 733 739 744 748 755 763 767 772 778 781 783 786 789 790 791 793 794 796 797 796 798 799 799 800
753 753 749 750 749 750 730 724 708 692 690 694 701 706 706 705 703 701 698 697 698 705 711 715 719 725 731 738 744 750 757 762 767 773 777 781 784 786 788 789 791 792 794 796 796 797 798 799 800
757 754 753 747 756 736 729 726 704 695 694 706 709 710 709 708 706 704 701 699 700 703 707 711 716 721 726 732 740 746 752 757 762 767 772 777 781 784 786 788 790 790 792 794 795 796 796 798 799
752 754 745 735 721 717 725 726 697 699 703 707 709 712 709 709 710 708 706 704 703 704 706 710 713 718 724 729 736 742 748 753 759 764 769 773 778 782 784 787 789 787 790 792 794 794 796 798 799
754 761 744 749 761 754 720 706 698 694 704 707 709 713 711 711 711 712 710 707 706 707 708 710 713 717 722 726 732 738 743 750 754 761 767 771 776 778 782 784 786 787 789 791 793 793 796 797 798
765 758 756 755 750 732 710 715 707 704 710 714 715 717 715 715 712 712 714 711 710 709 709 711 713 716 720 724 728 732 738 746 751 757 763 768 772 775 779 782 784 787 788 789 791 791 792 794 796
763 763 762 752 735 729 720 705 698 708 716 718 722 725 724 719 715 714 715 715 712 710 709 710 712 715 719 722 726 730 736 742 749 754 759 764 768 772 776 779 782 785 787 787 789 789 790 792 796
772 769 770 768 741 732 727 713 690 709 718 725 727 728 727 725 722 717 713 713 711 710 710 710 711 713 716 720 723 727 732 739 745 750 756 761 765 769 774 776 779 783 785 786 788 788 790 790 792
Wind_Speed
11 6 5 5 6 7 14 16 9 9 6 3 4 6 7 14 4 2 5 4 14 18 19 19 20 18 17 16 15 15 14 14 14 14 14 14 14 14 13 12 11 11 10 10 9 7 4 4 4
9 7 7 6 8 13 12 14 10 13 11 2 3 8 9 9 2 6 8 9 15 18 18 18 19 19 18 18 18 15 14 15 15 15 15 15 14 13 12 11 10 10 9 9 9 8 5 4 3
8 9 7 6 14 16 13 1 7 14 5 7 6 4 5 2 2 5 5 15 17 17 18 19 19 19 19 19 19 17 15 14 14 15 14 13 12 12 10 9 8 8 8 8 8 7 5 4 3
10 7 7 11 19 13 17 7 6 9 5 9 10 6 4 1 2 5 12 16 17 17 15 18 19 19 20 20 19 18 16 15 14 13 12 12 10 9 9 9 8 8 7 7 6 4 4 3 3
13 7 12 16 22 20 8 11 6 9 8 10 7 12 2 5 5 7 14 14 16 17 16 17 18 19 20 19 19 18 17 16 14 14 13 13 12 11 11 10 7 6 6 5 3 3 3 3 4
8 10 12 18 21 16 13 11 13 15 10 8 5 11 6 7 9 11 15 15 16 16 17 17 17 18 19 19 19 19 17 16 15 13 12 13 11 10 9 7 6 4 2 2 1 1 1 3 5
16 11 17 20 17 15 12 9 14 16 18 17 10 10 2 7 10 13 14 15 14 15 16 18 17 18 19 19 19 19 18 17 15 15 14 13 10 9 8 5 4 3 3 2 2 3 4 6 7
11 14 22 18 17 20 6 7 14 16 19 17 10 9 12 10 14 15 15 14 15 16 16 16 19 21 21 22 20 18 17 17 17 13 11 9 8 8 8 6 5 4 2 3 4 6 7 8 10
8 12 15 20 19 13 2 8 15 13 13 12 10 13 3 1 16 16 17 18 18 17 19 20 21 23 26 23 20 18 16 14 13 14 13 12 10 8 7 5 3 1 3 5 7 9 10 11 11
11 13 19 15 11 12 10 13 14 10 13 15 11 11 4 9 14 16 19 22 21 21 20 19 23 24 23 22 19 16 17 14 13 13 12 9 9 8 5 2 1 3 5 7 9 10 10 9 7
8 19 15 15 10 9 16 16 16 17 16 15 13 13 14 13 16 16 19 22 23 21 18 20 23 26 25 23 20 17 12 13 12 12 11 10 7 5 4 1 2 4 7 5 7 8 7 9 8
17 15 17 18 17 12 17 15 18 18 18 17 10 9 6 12 15 19 19 19 17 14 18 21 22 25 22 22 19 16 13 12 11 10 10 8 5 5 3 2 2 4 6 7 6 6 8 8 8
14 16 17 16 15 18 19 20 21 20 15 14 12 7 9 12 15 18 21 19 17 15 18 22 21 23 21 20 18 16 13 12 11 10 9 6 5 5 3 1 2 3 4 5 6 7 8 9 9
5 9 14 15 18 18 19 22 21 18 15 20 19 14 13 12 13 16 19 23 22 19 22 21 22 21 20 18 19 16 14 12 11 9 8 8 5 4 2 1 2 3 5 6 7 8 8 8 9
10 15 16 18 19 16 11 20 24 24 18 22 24 21 21 18 16 16 21 21 21 20 20 23 23 22 21 17 17 16 14 13 11 9 8 7 5 3 2 1 2 3 5 7 6 7 8 9 9
6 10 8 4 3 13 9 15 16 13 18 24 22 22 21 20 20 20 19 21 22 22 24 24 22 23 21 18 18 15 14 12 11 9 7 7 5 3 1 0 1 4 4 5 6 6 8 8 10
9 10 13 12 6 6 13 12 9 4 10 14 16 16 17 20 21 23 21 23 25 26 26 27 25 24 22 20 17 15 15 13 11 9 7 7 5 3 2 1 1 3 3 4 5 6 7 9 10
9 12 12 12 3 6 14 16 19 17 15 15 14 15 16 17 20 24 23 20 23 26 28 27 26 25 23 22 18 16 14 13 11 9 8 8 5 4 2 1 1 2 2 3 5 6 6 8 9
16 13 15 16 15 11 16 19 21 18 17 17 17 17 19 19 16 18 20 21 22 26 28 30 29 28 26 25 22 17 16 14 11 10 11 9 6 5 3 2 0 1 1 3 4 5 6 5 9
13 15 17 17 10 9 17 22 21 22 19 19 21 19 20 17 16 17 22 24 26 28 31 32 32 32 29 26 24 15 18 13 12 11 11 10 8 6 4 3 2 1 1 2 3 4 5 3 7
11 13 15 17 18 17 17 17 20 18 12 12 18 19 16 18 15 15 15 23 28 29 32 35 36 35 31 27 24 17 18 15 13 13 12 11 9 7 6 4 2 1 1 2 3 3 3 3 3
14 10 13 14 10 6 1 7 14 12 12 11 14 9 9 10 12 13 16 20 26 32 34 35 35 35 33 31 28 29 24 20 15 16 13 12 10 8 6 4 2 2 1 1 1 1 1 1 2
4 4 7 9 11 12 15 8 7 6 9 11 12 10 13 9 9 10 13 20 26 28 32 35 35 34 33 33 32 30 20 18 18 16 16 12 11 9 7 5 3 1 1 1 2 1 1 2 1
2 6 8 7 7 7 14 13 7 8 4 9 14 14 14 11 11 9 10 13 17 22 27 32 35 37 36 34 30 29 24 22 21 19 17 13 11 9 8 5 4 3 3 2 2 3 3 2 1
7 5 3 5 4 6 4 6 11 16 8 8 10 14 17 16 16 13 10 6 10 17 25 29 33 33 34 34 31 29 25 25 24 23 20 17 13 11 10 8 6 5 4 3 3 3 3 2 2
8 8 4 6 7 4 3 5 2 7 7 10 10 12 18 16 16 14 11 7 8 12 19 23 28 29 31 32 31 28 26 25 21 22 19 17 15 13 12 10 8 6 5 5 4 4 3 3 2
3 7 6 6 3 4 7 10 13 3 10 7 8 14 18 18 17 16 13 11 5 8 15 21 23 26 28 31 30 28 28 26 24 22 19 17 16 15 13 11 8 7 7 6 5 5 4 3 2
6 7 3 4 5 9 5 5 8 12 8 10 10 15 19 19 19 14 12 12 7 7 11 16 20 24 27 29 30 31 31 27 25 25 24 22 19 16 15 12 10 9 8 8 7 6 5 4 1
2 4 5 5 8 9 9 6 8 7 6 11 14 16 20 19 18 16 11 13 9 6 8 13 17 21 25 27 27 30 31 29 27 27 24 22 20 18 16 14 12 10 9 8 7 6 6 5 3
8 11 10 4 9 8 12 16 13 7 9 14 18 20 18 18 19 16 12 11 9 6 8 12 15 20 24 26 26 30 32 31 29 27 25 23 21 19 18 16 14 12 10 9 8 7 6 6 5
Wind_Direction
231 253 261 251 240 234 248 234 236 258 244 221 305 261 267 249 248 275 145 118 144 155 156 159 162 161 158 152 149 146 144 136 130 128 123 116 111 108 106 106 104 97 90 87 88 102 114 109 103
212 214 228 254 245 240 237 241 204 246 252 189 263 250 253 252 60 106 145 164 156 152 158 163 163 164 161 155 151 151 150 140 132 126 123 122 119 114 109 104 96 88 79 76 75 78 92 104 117
197 214 238 227 238 242 254 252 249 252 238 225 240 237 302 292 86 151 113 154 157 154 161 164 165 167 163 159 153 153 149 144 137 130 126 122 120 118 117 112 107 95 78 65 55 50 57 68 61
192 196 253 246 243 234 250 162 300 280 218 235 241 254 156 129 150 165 156 160 153 155 155 165 165 168 166 163 159 158 154 147 143 139 138 131 125 119 114 110 106 105 102 95 89 77 49 48 37
225 225 232 234 245 257 217 272 237 264 205 202 213 247 231 160 163 161 163 162 156 160 156 158 165 169 170 168 165 161 156 149 145 145 140 133 128 124 112 104 119 117 118 113 107 74 43 7 346
204 234 238 236 245 238 255 229 253 248 241 209 232 261 267 130 170 166 165 171 166 165 154 161 167 170 167 165 161 157 156 150 150 146 143 135 140 133 130 130 126 132 123 99 69 11 3 331 320
230 216 238 251 256 257 229 221 251 252 253 241 222 274 199 170 176 167 170 173 172 164 161 160 165 170 170 166 163 160 157 155 151 150 148 151 157 156 155 147 129 106 89 68 15 349 325 316 309
231 255 250 250 256 258 215 261 240 258 253 262 268 244 251 205 172 172 171 166 164 164 165 165 164 163 165 166 166 168 164 160 160 168 162 160 151 144 136 128 117 96 57 15 343 332 324 318 312
246 242 242 244 248 245 193 238 245 246 275 245 246 248 340 163 159 172 173 175 174 168 168 166 162 164 165 165 173 171 162 164 157 151 146 131 126 130 141 123 106 41 335 324 318 315 316 318 322
222 230 242 264 270 271 264 233 266 236 242 243 229 235 230 194 165 189 189 186 188 180 173 171 180 175 168 161 156 155 150 144 148 148 148 145 144 146 132 122 341 312 319 322 323 321 331 340 325
228 245 255 255 283 296 274 264 259 260 253 257 246 231 189 213 189 209 208 203 196 189 183 175 180 176 169 159 155 150 154 153 152 156 159 152 144 137 123 70 20 347 341 340 340 339 339 331 331
245 257 261 273 283 276 258 269 266 260 254 269 304 310 268 217 219 209 213 217 196 173 188 181 179 175 168 164 154 154 161 160 154 161 163 163 157 153 143 108 6 356 341 339 344 340 336 332 327
247 262 275 268 269 266 263 261 262 260 264 267 269 257 251 236 231 221 213 208 205 197 194 187 178 178 173 163 159 159 165 160 161 160 168 162 163 167 146 115 24 352 345 340 342 338 335 329 323
316 275 275 273 265 264 259 263 258 252 257 265 262 245 248 245 241 226 213 211 206 204 194 186 179 177 173 172 159 161 161 163 155 156 167 169 165 165 139 73 13 355 339 336 338 332 331 327 324
279 278 277 259 249 242 261 266 253 256 253 252 255 254 249 255 240 231 221 217 208 203 192 189 180 181 172 169 161 160 166 159 156 163 168 178 173 171 150 84 19 335 335 346 341 336 334 329 325
262 256 271 130 283 242 216 267 276 250 239 246 252 250 248 244 244 241 225 216 206 199 190 183 184 180 172 168 164 161 165 159 161 162 172 187 188 172 147 69 5 323 349 344 340 341 338 331 324
231 267 246 262 261 242 215 263 275 352 269 251 262 254 248 252 244 233 225 213 205 199 191 187 185 182 173 166 164 163 164 163 162 163 173 191 194 194 170 170 293 348 359 348 345 343 337 328 324
280 244 260 259 152 241 257 257 268 273 268 260 266 262 258 250 241 239 226 216 206 199 194 188 184 180 175 162 161 164 167 166 165 169 178 183 193 197 181 180 294 5 1 341 343 339 334 326 325
288 284 279 280 284 267 272 270 274 272 267 259 257 257 250 245 246 250 247 217 208 200 192 189 183 181 173 167 164 167 173 169 167 177 190 188 194 200 189 179 310 338 345 338 341 343 340 346 339
263 269 274 283 293 284 282 275 269 269 263 258 258 251 250 249 240 232 225 221 203 201 195 190 186 181 179 175 174 171 169 175 176 183 186 191 198 200 195 182 194 249 312 331 345 356 357 353 5
254 260 276 280 299 289 271 279 252 260 246 258 254 254 259 259 256 232 220 216 202 201 197 192 189 184 180 176 169 160 161 158 174 183 186 192 195 201 197 203 201 262 323 307 346 355 14 3 24
278 288 285 280 290 275 59 292 298 278 270 256 262 263 276 284 267 254 237 212 211 204 198 194 190 185 182 175 171 170 170 171 191 185 186 188 192 195 201 204 215 227 249 272 321 10 48 24 61
257 333 293 287 275 287 268 254 264 229 261 288 54 359 342 342 337 303 252 241 212 208 198 193 189 185 183 181 179 179 181 176 168 173 177 180 188 198 201 198 209 208 181 199 147 127 120 99 126
277 280 259 272 268 254 251 236 267 262 310 2 24 32 29 6 344 321 295 256 218 204 201 194 187 187 184 183 181 181 179 166 161 169 171 177 185 193 202 199 192 185 182 171 150 148 125 129 118
217 252 283 228 207 255 38 279 252 287 350 30 71 50 30 23 13 1 343 277 236 211 199 195 192 189 183 182 183 182 177 179 177 175 173 174 178 187 198 190 192 171 172 174 163 145 121 123 127
217 201 228 274 268 309 199 246 130 49 66 95 88 48 22 24 20 14 4 332 257 218 202 200 195 188 184 182 182 179 175 179 177 178 177 177 183 185 193 184 188 171 173 171 173 145 138 150 170
166 223 268 275 218 259 242 268 281 224 112 104 58 19 20 15 12 8 3 1 314 240 217 205 199 192 186 182 177 175 177 178 178 179 178 173 177 183 179 182 179 172 172 167 163 144 149 150 162
257 337 232 209 257 255 237 239 254 115 53 47 38 10 6 2 359 6 359 358 333 267 234 216 204 199 188 182 179 177 180 180 182 180 178 181 183 180 179 178 174 177 171 166 165 154 147 133 207
311 262 249 292 264 262 268 250 80 71 61 16 4 359 347 347 356 355 354 344 333 297 249 219 211 198 189 184 179 173 176 179 183 184 184 186 184 181 183 180 176 180 175 171 170 154 151 147 174
285 295 318 280 256 252 262 259 270 109 22 354 344 339 348 342 342 338 341 336 328 294 254 228 210 199 191 186 178 176 178 181 183 183 186 187 185 184 187 182 180 181 180 179 178 168 167 162 167